[[{"header":{"parameterUnit":"m.s-1","parameterCategory":1,"la1":30.2991,"la2":30.254,"lo1":-89.0895,"lo2":-89.0444,"dy":0.0017,"dx":0.0017,"nx":28,"ny":28,"refTime":"2024-07-21T21:00:00:Z","depth":0,"parameterNumber":2,"parameterNumberName":"U-component_of_WINDS"},"data":[0,0,0,0,0,0,0,0,0,0,0,0,0,0,0,0,0,0,0,0,0,0,0,0,0,0,0,0,0,0,0,0,0,0,0,0,0,0,0,0,0,0,0,0,0,0,0,0,0,0,0,0,0,0,0,0,0,0,0.6023,0.6023,0,0.6078,0.6078,0.6079,0.6118,0.6118,0.6118,0.6119,0.6171,0.6173,0.6174,0,0,0,0,0,0,0,0,0,0,0,0,0,0.5947,0.5948,0.6023,0.6023,0.6024,0.6078,0.6078,0.6079,0.6118,0.6118,0.6118,0.6119,0.6171,0.6172,0.6174,0,0,0,0,0,0,0,0,0,0,0,0,0,0.5989,0.5949,0.6023,0.605,0.6053,0.6077,0.6078,0.6079,0.6118,0.6118,0.6118,0.6119,0.6171,0.6172,0.6174,0.6175,0,0,0.6179,0.618,0,0,0,0,0,0,0,0,0.5986,0.5991,0.6045,0.6048,0.6051,0.6091,0.6071,0.6111,0.6117,0.6093,0.6119,0.6119,0.6144,0.6148,0.6157,0.6177,0.6179,0.6179,0.618,0.6181,0.6181,0,0,0,0,0,0,0,0.5983,0.5989,0.6044,0.6046,0.605,0.6058,0.6064,0.6079,0.6115,0.6095,0.6098,0.6104,0.6146,0.6156,0.6159,0.618,0.6179,0.6181,0.6182,0.6182,0.6201,0.6201,0,0,0,0,0,0,0.5977,0.5987,0.6043,0.6046,0.6019,0.6059,0.6066,0.6078,0.6115,0.6121,0.6104,0.6106,0.6152,0.6157,0.6161,0.6163,0.6181,0.6182,0.6183,0.6202,0.6201,0.6201,0,0,0,0,0,0,0.5975,0.5981,0.604,0.6017,0.6025,0.606,0.6073,0.6079,0.6089,0.6122,0.6128,0.6107,0.6153,0.6158,0.6171,0.6165,0.6183,0.6185,0.6202,0.6202,0.6201,0.6167,0,0,0,0,0,0,0.5973,0.598,0.5982,0.6017,0.6026,0.6051,0.6072,0.608,0.6092,0.6095,0.6126,0.6132,0.6154,0.6168,0.6172,0.6168,0.6186,0.6203,0.6202,0.6201,0.6169,0.6166,0.6163,0,0,0,0,0,0.597,0.597,0.5982,0.5989,0.603,0.605,0.6056,0.6082,0.6091,0.6092,0.6113,0.6131,0.6165,0.6169,0.6174,0.617,0.6203,0.6202,0.6201,0.6171,0.6166,0.6163,0,0,0,0,0,0,0.5933,0.5975,0.5989,0.6001,0.6022,0.6057,0.6059,0.6076,0.6094,0.6096,0.6127,0.6133,0.6142,0.6157,0.6161,0.6172,0.6186,0.6186,0.6161,0.6157,0.6154,0.615,0.6187,0,0,0,0,0,0.5927,0.5941,0.5977,0.5984,0.5994,0.6025,0.6035,0.6053,0.6075,0.6084,0.6106,0.6126,0.6141,0.615,0.6166,0.6172,0.6178,0.6171,0.6168,0.6165,0.6164,0.6166,0.6163,0.6197,0.6197,0.6197,0,0,0.5913,0.5938,0.5945,0.5977,0.5996,0.6008,0.6032,0.6045,0.6054,0.6086,0.6098,0.6115,0.6139,0.6148,0.6153,0.6161,0.6156,0.6164,0.6161,0.6162,0.6165,0.6162,0.6159,0.6196,0.6196,0.6197,0,0,0.5895,0.5916,0.5924,0.5941,0.5969,0.5989,0.5991,0.6023,0.6035,0.6049,0.6072,0.6083,0.6109,0.6125,0.6136,0.6122,0.6138,0.6126,0.6109,0.611,0.6108,0.6106,0.6099,0.6096,0.6125,0.6125,0.6125,0,0.5874,0.5896,0.5925,0.5936,0.5949,0.5979,0.5985,0.6001,0.6031,0.6038,0.6048,0.608,0.6098,0.611,0.6106,0.6115,0.6116,0.6122,0.6106,0.6104,0.6102,0.6096,0.6094,0.6124,0.6124,0.6124,0.6124,0,0.5869,0.5883,0.5886,0.5915,0.5928,0.5937,0.5965,0.5975,0.5991,0.601,0.6022,0.6045,0.6065,0.607,0.6086,0.6083,0.6087,0.6101,0.6116,0.6097,0.6092,0.609,0.6121,0.6122,0.6122,0.6123,0,0,0.5829,0.5874,0.5874,0.5887,0.5919,0.593,0.5939,0.596,0.5967,0.5986,0.5994,0.6014,0.6027,0.604,0.6058,0.6059,0.6044,0.6073,0.6074,0.6065,0.6041,0.6029,0.6026,0.6056,0.6056,0.6055,0.6038,0,0.5815,0.5835,0.586,0.5871,0.5883,0.5911,0.5918,0.5938,0.5955,0.5967,0.5986,0.5999,0.6016,0.6023,0.6026,0.6046,0.604,0.6047,0.6061,0.6061,0.6053,0.6024,0.6012,0.5995,0.6036,0.6036,0.6036,0,0.5801,0.582,0.5832,0.5861,0.5867,0.5874,0.5894,0.5906,0.5927,0.594,0.5953,0.5973,0.5982,0.5996,0.6008,0.6013,0.602,0.603,0.603,0.6031,0.6047,0.6023,0.599,0.5987,0.6033,0.6033,0.6034,0,0.577,0.5798,0.5808,0.5818,0.5853,0.5857,0.5871,0.5894,0.5904,0.5921,0.5927,0.5945,0.5954,0.5966,0.5989,0.5998,0.5998,0.6015,0.6007,0.6006,0.6005,0.6005,0.5971,0.6012,0.6012,0.6012,0.6012,0,0.575,0.5756,0.5794,0.58,0.5806,0.5835,0.584,0.5857,0.5876,0.5885,0.5909,0.5917,0.5947,0.5957,0.5975,0.5981,0.5986,0.5994,0.5999,0.5992,0.599,0.5996,0.5997,0.6011,0.6011,0.6011,0.6011,0,0.5716,0.5742,0.5755,0.5786,0.5794,0.5797,0.5824,0.583,0.5848,0.5859,0.5863,0.5891,0.5904,0.5929,0.5949,0.596,0.5962,0.5971,0.5955,0.5957,0.5948,0.5948,0.5916,0.5912,0.5956,0.5955,0.5955,0,0.5702,0.5707,0.5739,0.5747,0.576,0.5773,0.5783,0.581,0.582,0.5844,0.5847,0.5862,0.5876,0.5895,0.5916,0.5931,0.5939,0.5927,0.5942,0.5934,0.5937,0.5936,0.5936,0.5924,0.5923,0.5922,0.5922,0,0.5672,0.5685,0.5699,0.5718,0.573,0.5745,0.5762,0.5767,0.5798,0.5807,0.5821,0.5831,0.5851,0.5865,0.5883,0.5896,0.5913,0.5917,0.5916,0.5908,0.5898,0.5901,0.5944,0.5918,0.5918,0.5919,0.5919,0.5919,0.5647,0.5652,0.5675,0.5689,0.5705,0.572,0.5726,0.5746,0.5758,0.5777,0.5792,0.5804,0.5824,0.585,0.5862,0.5871,0.5879,0.5878,0.5877,0.5876,0.5872,0.5898,0.5874,0.5874,0.5875,0.5875,0.5875,0,0.5618,0.5633,0.5647,0.567,0.5681,0.5697,0.5716,0.5724,0.5734,0.5752,0.5765,0.5779,0.5793,0.5815,0.583,0.5832,0.584,0.5835,0.5835,0.5837,0.5865,0.5864,0.5828,0.5828,0.5828,0.5828,0.5828,0.5828,0.5604,0.5612,0.5627,0.5643,0.5658,0.5671,0.568,0.5693,0.5707,0.5723,0.5734,0.5749,0.5768,0.5784,0.5796,0.5802,0.5806,0.5797,0.5806,0.5831,0.5835,0.5839,0.5838,0.5798,0.5798,0.5777,0.5777,0.5777]},{"header":{"parameterUnit":"m.s-1","parameterCategory":1,"la1":30.2991,"la2":30.254,"lo1":-89.0895,"lo2":-89.0444,"dy":0.0017,"dx":0.0017,"nx":28,"ny":28,"refTime":"2024-07-21T21:00:00:Z","depth":0,"parameterNumber":3,"parameterNumberName":"V-component_of_WINDS"},"data":[0,0,0,0,0,0,0,0,0,0,0,0,0,0,0,0,0,0,0,0,0,0,0,0,0,0,0,0,0,0,0,0,0,0,0,0,0,0,0,0,0,0,0,0,0,0,0,0,0,0,0,0,0,0,0,0,0,0,5.0909,5.091,0,5.0942,5.0943,5.0943,5.0917,5.0916,5.0914,5.0913,5.0944,5.0946,5.0948,0,0,0,0,0,0,0,0,0,0,0,0,0,5.0819,5.0821,5.0909,5.091,5.091,5.0942,5.0943,5.0943,5.0917,5.0915,5.0914,5.0913,5.0944,5.0946,5.0948,0,0,0,0,0,0,0,0,0,0,0,0,0,5.0856,5.0821,5.0909,5.0901,5.09,5.0942,5.0943,5.0943,5.0917,5.0915,5.0914,5.0912,5.0943,5.0946,5.0948,5.0999,0,0,5.0957,5.0958,0,0,0,0,0,0,0,0,5.0853,5.0859,5.0902,5.0901,5.0901,5.0924,5.0922,5.0962,5.0918,5.0911,5.0913,5.0911,5.0939,5.0942,5.0951,5.1,5.1002,5.0957,5.0959,5.096,5.0961,0,0,0,0,0,0,0,5.0851,5.0857,5.0922,5.0902,5.0902,5.0894,5.0897,5.093,5.0933,5.0911,5.0909,5.0914,5.0938,5.0949,5.0952,5.1002,5.0957,5.0959,5.0961,5.0962,5.1093,5.1094,0,0,0,0,0,0,5.085,5.0855,5.0921,5.0923,5.0873,5.0897,5.0901,5.0918,5.0933,5.0934,5.0915,5.0912,5.0945,5.0949,5.0953,5.1012,5.096,5.0963,5.0964,5.1091,5.1093,5.1095,0,0,0,0,0,0,5.0848,5.0856,5.092,5.0889,5.0896,5.09,5.092,5.092,5.093,5.0936,5.0936,5.0926,5.0944,5.0949,5.0988,5.1013,5.0964,5.0966,5.1089,5.1092,5.1094,5.1131,0,0,0,0,0,0,5.0845,5.0855,5.0876,5.089,5.0898,5.0955,5.0922,5.0922,5.0936,5.0932,5.0946,5.0947,5.0943,5.0984,5.099,5.1016,5.0969,5.1087,5.109,5.1093,5.1128,5.1135,5.1141,0,0,0,0,0,5.0842,5.0885,5.0877,5.0885,5.0924,5.0957,5.0962,5.0957,5.0938,5.0957,5.0961,5.0946,5.1009,5.0988,5.0995,5.1022,5.1085,5.1089,5.1093,5.1125,5.1133,5.1141,0,0,0,0,0,0,5.0873,5.0886,5.0878,5.0926,5.0941,5.0952,5.0977,5.0967,5.0986,5.0982,5.0975,5.0978,5.1018,5.1024,5.1,5.1071,5.1044,5.1049,5.1065,5.1074,5.108,5.1077,5.0971,0,0,0,0,0,5.0885,5.0912,5.0922,5.0963,5.0971,5.0973,5.0987,5.0983,5.0997,5.1002,5.1009,5.1022,5.1045,5.106,5.1081,5.1129,5.113,5.1151,5.1157,5.1163,5.1167,5.1191,5.12,5.1108,5.1108,5.1108,0,0,5.0911,5.0922,5.0939,5.097,5.0981,5.1007,5.0978,5.1008,5.1027,5.1006,5.1043,5.1048,5.1063,5.1106,5.1125,5.1112,5.1193,5.1168,5.1172,5.1173,5.1196,5.1205,5.1212,5.1111,5.1111,5.111,0,0,5.0971,5.0983,5.1018,5.1029,5.1046,5.1047,5.1055,5.1068,5.1071,5.1108,5.1093,5.1115,5.1155,5.1165,5.1175,5.1239,5.1225,5.1246,5.128,5.1303,5.131,5.1316,5.1337,5.1345,5.1251,5.1251,5.1251,0,5.1,5.1041,5.1037,5.1067,5.108,5.1064,5.1099,5.111,5.1132,5.1141,5.1126,5.1174,5.1183,5.1227,5.1243,5.1253,5.126,5.1244,5.131,5.1316,5.1322,5.1342,5.135,5.1253,5.1253,5.1252,5.1252,0,5.1075,5.1104,5.113,5.1152,5.1169,5.1201,5.12,5.1217,5.1211,5.1213,5.125,5.126,5.1282,5.1292,5.1286,5.1336,5.1327,5.1311,5.1284,5.1333,5.1351,5.1359,5.1256,5.1255,5.1255,5.1254,0,0,5.1155,5.1175,5.1185,5.1194,5.1211,5.1232,5.1263,5.1285,5.1299,5.1315,5.1339,5.1373,5.1358,5.137,5.1365,5.1386,5.1434,5.1368,5.1368,5.1378,5.1486,5.1497,5.1506,5.1425,5.1427,5.1428,5.1485,0,5.1215,5.127,5.1266,5.1317,5.1342,5.1327,5.1353,5.1366,5.1368,5.1389,5.1391,5.1414,5.1394,5.1401,5.1421,5.1424,5.1455,5.142,5.1446,5.1447,5.1442,5.1516,5.1527,5.158,5.1492,5.1493,5.1494,0,5.1292,5.1311,5.1364,5.1376,5.1386,5.1411,5.143,5.1451,5.1464,5.1464,5.1477,5.1468,5.1498,5.1471,5.1511,5.1487,5.1497,5.15,5.1502,5.1503,5.1473,5.1517,5.1597,5.1605,5.1506,5.1505,5.1504,0,5.1342,5.1381,5.1418,5.1427,5.1442,5.1459,5.1466,5.1478,5.1491,5.1508,5.1516,5.1536,5.1547,5.1562,5.1558,5.1539,5.1598,5.1571,5.1598,5.1598,5.161,5.1609,5.1691,5.1619,5.1619,5.1619,5.1619,0,5.1408,5.1441,5.1441,5.1463,5.1499,5.1494,5.1529,5.1534,5.1545,5.1567,5.1555,5.1575,5.157,5.159,5.1587,5.1619,5.1625,5.1624,5.1623,5.1625,5.1624,5.163,5.1626,5.1621,5.1621,5.162,5.162,0,5.1471,5.1472,5.151,5.1522,5.1526,5.1551,5.156,5.1581,5.1582,5.161,5.1616,5.1618,5.1641,5.1639,5.1665,5.1663,5.1702,5.1697,5.1698,5.1696,5.1722,5.1719,5.181,5.182,5.1744,5.1744,5.1745,0,5.1512,5.1537,5.1551,5.1565,5.1573,5.1597,5.161,5.1606,5.1621,5.1637,5.1655,5.1677,5.1694,5.1731,5.1734,5.1753,5.1747,5.1778,5.175,5.175,5.1746,5.1744,5.1745,5.1783,5.1784,5.1784,5.1785,0,5.1585,5.1584,5.1604,5.1625,5.1642,5.1657,5.1672,5.1684,5.1681,5.1698,5.1721,5.1735,5.1761,5.1782,5.18,5.1806,5.1794,5.1794,5.1801,5.1802,5.18,5.18,5.1711,5.1791,5.1791,5.179,5.179,5.179,5.1636,5.1657,5.167,5.1693,5.1703,5.1717,5.1736,5.174,5.176,5.1781,5.1778,5.1804,5.1815,5.1838,5.1846,5.1865,5.1854,5.1864,5.1866,5.1869,5.1871,5.1799,5.1868,5.1868,5.1868,5.1868,5.1868,0,5.1707,5.1714,5.1736,5.1756,5.1774,5.1763,5.1778,5.1793,5.1816,5.1828,5.1845,5.1871,5.1892,5.1896,5.1915,5.193,5.1925,5.1935,5.1933,5.1934,5.1881,5.1872,5.1938,5.1938,5.1938,5.1938,5.1938,5.1938,5.1745,5.178,5.178,5.1819,5.1826,5.1851,5.1861,5.1872,5.1882,5.1912,5.1929,5.1932,5.1941,5.196,5.1978,5.1979,5.1985,5.1997,5.1995,5.1945,5.1938,5.1931,5.1923,5.1999,5.1999,5.2047,5.2047,5.2048]}]]